| time (UTC) | temp F | wind direction | speed MPH | gust MPH | rain 1hr in | rain 24hr in | rain mn in | humidity % | barometer mb |
| 20260509172351 | 68 | 45 | 6.0 | 10.0 | 0.00 | 0.05 | 0.01 | 40 | 1014.2 |
| 20260509171353 | 68 | 26 | 8.0 | 14.0 | 0.00 | 0.05 | 0.01 | 42 | 1014.2 |
| 20260509164350 | 69 | 5 | 10.0 | 15.0 | 0.00 | 0.05 | 0.01 | 42 | 1014.4 |
| 20260509162353 | 69 | 36 | 8.0 | 16.0 | 0.00 | 0.05 | 0.01 | 41 | 1014.5 |
| 20260509161350 | 70 | 5 | 8.0 | 14.0 | 0.00 | 0.05 | 0.01 | 40 | 1014.5 |
| 20260509160351 | 70 | 343 | 9.0 | 14.0 | 0.00 | 0.05 | 0.01 | 44 | 1014.6 |
| 20260509155348 | 70 | 32 | 10.0 | 17.0 | 0.00 | 0.05 | 0.01 | 40 | 1014.6 |
| 20260509153349 | 71 | 355 | 8.0 | 12.0 | 0.00 | 0.05 | 0.01 | 42 | 1014.6 |
| 20260509151350 | 70 | 34 | 6.0 | 14.0 | 0.00 | 0.05 | 0.01 | 41 | 1014.7 |
| 20260509150348 | 70 | 83 | 8.0 | 14.0 | 0.00 | 0.05 | 0.01 | 36 | 1015.0 |
| 20260509145348 | 70 | 65 | 9.0 | 13.0 | 0.00 | 0.05 | 0.01 | 39 | 1015.0 |
| 20260509144348 | 70 | 22 | 9.0 | 15.0 | 0.00 | 0.05 | 0.01 | 43 | 1014.8 |
| 20260509142349 | 70 | 76 | 9.0 | 15.0 | 0.00 | 0.05 | 0.01 | 39 | 1015.1 |
| 20260509141347 | 69 | 32 | 11.0 | 18.0 | 0.00 | 0.05 | 0.01 | 42 | 1015.0 |
| 20260509140347 | 69 | 5 | 10.0 | 18.0 | 0.00 | 0.05 | 0.01 | 43 | 1015.0 |
| 20260509135348 | 69 | 13 | 10.0 | 17.0 | 0.00 | 0.05 | 0.01 | 43 | 1015.2 |
| 20260509133346 | 69 | 48 | 8.0 | 16.0 | 0.00 | 0.05 | 0.01 | 42 | 1015.6 |
| 20260509132348 | 69 | 35 | 10.0 | 16.0 | 0.00 | 0.05 | 0.01 | 44 | 1016.0 |
| 20260509131345 | 69 | 5 | 11.0 | 18.0 | 0.00 | 0.05 | 0.01 | 45 | 1016.1 |
| 20260509130344 | 69 | 20 | 10.0 | 17.0 | 0.00 | 0.05 | 0.01 | 45 | 1016.2 |
| 20260509124343 | 68 | 19 | 9.0 | 16.0 | 0.00 | 0.05 | 0.01 | 46 | 1016.4 |
| 20260509123345 | 69 | 23 | 7.0 | 14.0 | 0.00 | 0.05 | 0.01 | 43 | 1016.3 |
| 20260509122344 | 68 | 35 | 8.0 | 15.0 | 0.00 | 0.05 | 0.01 | 44 | 1016.5 |
| 20260509121345 | 68 | 11 | 8.0 | 15.0 | 0.00 | 0.05 | 0.01 | 47 | 1016.6 |
| 20260509120343 | 68 | 30 | 8.0 | 13.0 | 0.00 | 0.05 | 0.01 | 46 | 1016.7 |
| 20260509115345 | 68 | 57 | 7.0 | 14.0 | 0.00 | 0.05 | 0.01 | 48 | 1016.8 |
| 20260509113343 | 67 | 33 | 6.0 | 13.0 | 0.00 | 0.05 | 0.01 | 49 | 1017.1 |
| 20260509112343 | 67 | 46 | 7.0 | 13.0 | 0.00 | 0.05 | 0.01 | 46 | 1017.3 |
| 20260509111343 | 67 | 349 | 6.0 | 11.0 | 0.00 | 0.05 | 0.01 | 50 | 1017.4 |
| 20260509110343 | 67 | 37 | 6.0 | 12.0 | 0.00 | 0.05 | 0.01 | 50 | 1017.6 |
| 20260509105338 | 66 | 5 | 7.0 | 12.0 | 0.00 | 0.05 | 0.01 | 52 | 1017.7 |
| 20260509104338 | 66 | 345 | 9.0 | 14.0 | 0.00 | 0.05 | 0.01 | 54 | 1017.9 |
| 20260509103339 | 66 | 14 | 7.0 | 12.0 | 0.00 | 0.05 | 0.01 | 51 | 1017.9 |
| 20260509102339 | 65 | 55 | 5.0 | 12.0 | 0.00 | 0.05 | 0.01 | 54 | 1018.0 |
| 20260509101339 | 65 | 13 | 6.0 | 10.0 | 0.00 | 0.05 | 0.01 | 49 | 1018.2 |
| 20260509100338 | 65 | 31 | 4.0 | 10.0 | 0.00 | 0.05 | 0.01 | 53 | 1018.2 |
| 20260509095339 | 64 | 51 | 7.0 | 11.0 | 0.00 | 0.05 | 0.01 | 50 | 1018.4 |
| 20260509094335 | 64 | 36 | 6.0 | 10.0 | 0.00 | 0.05 | 0.01 | 52 | 1018.4 |
| 20260509093335 | 64 | 50 | 5.0 | 10.0 | 0.00 | 0.05 | 0.01 | 53 | 1018.6 |
| 20260509092336 | 64 | 17 | 4.0 | 8.0 | 0.00 | 0.05 | 0.01 | 55 | 1018.5 |
| 20260509091334 | 63 | 5 | 5.0 | 10.0 | 0.00 | 0.05 | 0.01 | 55 | 1018.5 |
| 20260509090334 | 63 | 5 | 5.0 | 9.0 | 0.00 | 0.05 | 0.01 | 58 | 1018.6 |
| 20260509085333 | 62 | 32 | 3.0 | 7.0 | 0.00 | 0.05 | 0.01 | 59 | 1018.6 |
| 20260509083335 | 62 | 28 | 2.0 | 5.0 | 0.00 | 0.05 | 0.01 | 59 | 1018.7 |
| 20260509082336 | 61 | 75 | 3.0 | 6.0 | 0.00 | 0.05 | 0.01 | 59 | 1018.6 |
| 20260509081331 | 60 | 307 | 2.0 | 4.0 | 0.00 | 0.05 | 0.01 | 60 | 1018.8 |
| 20260509080333 | 59 | 307 | 3.0 | 7.0 | 0.00 | 0.05 | 0.01 | 63 | 1018.8 |
| 20260509075331 | 58 | 302 | 4.0 | 8.0 | 0.00 | 0.05 | 0.01 | 65 | 1018.8 |
| 20260509074330 | 58 | 313 | 4.0 | 7.0 | 0.00 | 0.05 | 0.01 | 67 | 1018.9 |
| 20260509073329 | 57 | 302 | 6.0 | 8.0 | 0.00 | 0.05 | 0.01 | 68 | 1018.9 |
| 20260509071329 | 56 | 314 | 4.0 | 8.0 | 0.00 | 0.05 | 0.01 | 66 | 1018.9 |
| 20260509070329 | 57 | 55 | 1.0 | 2.0 | 0.00 | 0.05 | 0.01 | 65 | 1018.8 |
| 20260509065330 | 56 | 55 | 2.0 | 4.0 | 0.00 | 0.05 | 0.01 | 67 | 1018.8 |
| 20260509064324 | 55 | 55 | 3.0 | 5.0 | 0.00 | 0.05 | 0.01 | 68 | 1018.7 |
| 20260509063325 | 54 | 70 | 2.0 | 5.0 | 0.00 | 0.05 | 0.01 | 70 | 1018.6 |
| 20260509062323 | 54 | 152 | 1.0 | 3.0 | 0.00 | 0.05 | 0.01 | 69 | 1018.7 |
| 20260509061324 | 54 | 152 | 0.0 | 0.0 | 0.00 | 0.05 | 0.01 | 68 | 1018.7 |
| 20260509060323 | 54 | 152 | 0.0 | 0.0 | 0.00 | 0.05 | 0.01 | 68 | 1018.7 |
| 20260509054325 | 54 | 152 | 1.0 | 5.0 | 0.00 | 0.05 | 0.01 | 70 | 1018.8 |
| 20260509053323 | 53 | 152 | 1.0 | 3.0 | 0.00 | 0.05 | 0.01 | 71 | 1018.8 |
| 20260509052325 | 51 | 152 | 2.0 | 5.0 | 0.00 | 0.05 | 0.01 | 77 | 1018.7 |
| 20260509051321 | 50 | 151 | 2.0 | 3.0 | 0.00 | 0.05 | 0.01 | 78 | 1018.7 |
| 20260509050321 | 49 | 151 | 1.0 | 3.0 | 0.01 | 0.05 | 0.01 | 78 | 1018.5 |
| 20260509044322 | 48 | 151 | 2.0 | 5.0 | 0.01 | 0.05 | 0.01 | 78 | 1018.5 |
| 20260509043322 | 48 | 151 | 0.0 | 1.0 | 0.01 | 0.05 | 0.01 | 78 | 1018.4 |
| 20260509042322 | 48 | 151 | 1.0 | 2.0 | 0.01 | 0.05 | 0.01 | 77 | 1018.3 |
| 20260509040321 | 48 | 89 | 3.0 | 6.0 | 0.00 | 0.04 | 0.00 | 75 | 1018.2 |
| 20260509035319 | 49 | 84 | 5.0 | 7.0 | 0.00 | 0.04 | 0.00 | 75 | 1018.1 |
| 20260509034319 | 49 | 156 | 2.0 | 5.0 | 0.00 | 0.04 | 0.00 | 75 | 1018.3 |
| 20260509033320 | 49 | 156 | 2.0 | 5.0 | 0.00 | 0.04 | 0.00 | 74 | 1018.3 |
| 20260509032319 | 50 | 156 | 1.0 | 5.0 | 0.00 | 0.04 | 0.00 | 73 | 1018.2 |
| 20260509031320 | 50 | 199 | 0.0 | 2.0 | 0.00 | 0.04 | 0.00 | 73 | 1018.4 |
| 20260509030320 | 50 | 199 | 2.0 | 3.0 | 0.00 | 0.04 | 0.00 | 73 | 1018.4 |
| 20260509025320 | 50 | 199 | 1.0 | 3.0 | 0.00 | 0.04 | 0.00 | 73 | 1018.3 |
| 20260509024320 | 50 | 199 | 0.0 | 2.0 | 0.00 | 0.04 | 0.00 | 74 | 1018.2 |
| 20260509023319 | 50 | 199 | 0.0 | 2.0 | 0.00 | 0.04 | 0.00 | 73 | 1018.2 |
| 20260509022317 | 51 | 199 | 1.0 | 3.0 | 0.00 | 0.04 | 0.00 | 73 | 1018.1 |
| 20260509021317 | 51 | 199 | 0.0 | 0.0 | 0.00 | 0.04 | 0.00 | 73 | 1018.3 |
| 20260509020315 | 51 | 199 | 0.0 | 0.0 | 0.00 | 0.04 | 0.00 | 73 | 1018.3 |
| 20260509015317 | 51 | 199 | 0.0 | 1.0 | 0.00 | 0.04 | 0.00 | 73 | 1018.4 |
| 20260509014317 | 51 | 199 | 0.0 | 2.0 | 0.00 | 0.04 | 0.00 | 73 | 1018.4 |
| 20260509013315 | 51 | 199 | 1.0 | 3.0 | 0.00 | 0.04 | 0.00 | 73 | 1018.4 |
| 20260509012315 | 51 | 199 | 2.0 | 4.0 | 0.00 | 0.04 | 0.00 | 73 | 1018.5 |
| 20260509011315 | 51 | 199 | 1.0 | 3.0 | 0.00 | 0.04 | 0.00 | 73 | 1018.5 |
| 20260509010316 | 51 | 199 | 0.0 | 2.0 | 0.00 | 0.04 | 0.00 | 73 | 1018.4 |
| 20260509003316 | 51 | 199 | 2.0 | 3.0 | 0.00 | 0.04 | 0.00 | 73 | 1018.5 |
| 20260509001313 | 51 | 199 | 0.0 | 1.0 | 0.00 | 0.04 | 0.00 | 72 | 1018.5 |
| 20260508235306 | 51 | 199 | 1.0 | 2.0 | 0.00 | 0.04 | 0.00 | 72 | 1018.5 |
| 20260508234305 | 51 | 199 | 1.0 | 3.0 | 0.00 | 0.04 | 0.00 | 71 | 1018.4 |
| 20260508233306 | 52 | 199 | 1.0 | 3.0 | 0.00 | 0.04 | 0.00 | 70 | 1018.5 |
| 20260508231306 | 52 | 199 | 1.0 | 2.0 | 0.00 | 0.04 | 0.00 | 70 | 1018.6 |
| 20260508230306 | 52 | 199 | 1.0 | 3.0 | 0.00 | 0.04 | 0.00 | 70 | 1018.7 |
| 20260508224306 | 52 | 186 | 4.0 | 7.0 | 0.00 | 0.04 | 0.00 | 69 | 1018.7 |
| 20260508222306 | 52 | 113 | 2.0 | 4.0 | 0.00 | 0.04 | 0.00 | 70 | 1018.6 |
| 20260508221304 | 51 | 113 | 2.0 | 3.0 | 0.00 | 0.04 | 0.00 | 71 | 1018.7 |
| 20260508220310 | 51 | 113 | 1.0 | 2.0 | 0.00 | 0.04 | 0.00 | 70 | 1018.8 |
| 20260508215306 | 52 | 113 | 0.0 | 1.0 | 0.00 | 0.04 | 0.04 | 69 | 1018.7 |
| 20260508214304 | 52 | 113 | 1.0 | 2.0 | 0.00 | 0.04 | 0.04 | 70 | 1018.7 |
| 20260508213302 | 51 | 113 | 3.0 | 4.0 | 0.00 | 0.04 | 0.04 | 71 | 1018.6 |
| 20260508211303 | 50 | 79 | 0.0 | 2.0 | 0.00 | 0.04 | 0.04 | 74 | 1018.7 |
| 20260508205306 | 51 | 79 | 4.0 | 5.0 | 0.00 | 0.04 | 0.04 | 73 | 1018.7 |
| 20260508203301 | 51 | 74 | 4.0 | 5.0 | 0.00 | 0.04 | 0.04 | 71 | 1018.4 |
| 20260508202306 | 51 | 63 | 4.0 | 6.0 | 0.00 | 0.04 | 0.04 | 71 | 1018.4 |
| 20260508201302 | 52 | 59 | 3.0 | 5.0 | 0.00 | 0.04 | 0.04 | 69 | 1018.4 |
| 20260508200301 | 52 | 56 | 3.0 | 5.0 | 0.00 | 0.04 | 0.04 | 68 | 1018.3 |
| 20260508194301 | 53 | 58 | 2.0 | 4.0 | 0.00 | 0.04 | 0.04 | 68 | 1017.9 |
| 20260508193300 | 53 | 9 | 2.0 | 4.0 | 0.00 | 0.04 | 0.04 | 68 | 1017.9 |
| 20260508192301 | 53 | 5 | 4.0 | 9.0 | 0.00 | 0.04 | 0.04 | 67 | 1017.6 |
| 20260508191301 | 54 | 120 | 9.0 | 11.0 | 0.00 | 0.04 | 0.04 | 66 | 1017.4 |
| 20260508184255 | 54 | 125 | 5.0 | 8.0 | 0.04 | 0.04 | 0.04 | 69 | 1017.0 |
| 20260508183255 | 55 | 33 | 5.0 | 8.0 | 0.04 | 0.04 | 0.04 | 64 | 1016.9 |
| 20260508182254 | 54 | 38 | 4.0 | 13.0 | 0.04 | 0.04 | 0.04 | 61 | 1016.8 |
| 20260508181255 | 54 | 159 | 6.0 | 13.0 | 0.04 | 0.04 | 0.04 | 66 | 1016.8 |
| 20260508180254 | 54 | 301 | 8.0 | 15.0 | 0.02 | 0.02 | 0.03 | 64 | 1016.5 |
| 20260508175254 | 55 | 254 | 5.0 | 13.0 | 0.02 | 0.02 | 0.02 | 65 | 1016.6 |
| 20260508174255 | 57 | 243 | 10.0 | 16.0 | 0.00 | 0.00 | 0.01 | 61 | 1016.3 |
| 20260508173254 | 61 | 240 | 6.0 | 16.0 | 0.00 | 0.00 | 0.00 | 51 | 1016.1 |